Location: Cisewo
(53.3833°N, 14.9000°E)
Time: 11:43:41
(UTC+00:00)

Meteor 1-14 Rocket - Pass Details

Date: 18 April 2021
Orbit: 834 x 918 km, 81.3° (Epoch: 14 May)

Event Time Altitude Azimuth Distance (km) Brightness Sun altitude
Rises 23:12:22 0° 344° (NNW) 3,569 8.6 -25.4°
Reaches altitude 10° 23:14:53 10° 341° (NNW) 2,625 7.6 -25.4°
Maximum altitude 23:20:46 60° 264° (W) 1,051 4.5 -25.3°
Enters shadow 23:21:34 55° 230° (SW) 1,100 4.5 -25.3°
